Home > Weather > Fulda > Past weeks

Flag for Germany Weather for the Past 2 Weeks in Fulda, Hesse, Germany

Now
36 °F

Clear.


Feels Like: 36 °F
Forecast: 46 / 69 °F
Wind: 2 mph from Northwest

Location: Fritzlar

Current Time: May 5, 2016 at 3:41:13 AM

Latest Report: May 5, 2016 at 3:00 AM


Visibility: 25 mi

Pressure: 30.41 "Hg

Humidity: 83%

Dew Point: 32 °F

Location of FuldaLocation

Historic Weather in Fulda — Graph

°F

Fulda Temperature Yesterday

Maximum temperature yesterday: 57 °F (at 6:00 PM)
Minimum temperature yesterday: 35 °F (at 6:00 AM)
Average temperature yesterday: 47 °F

High & Low Weather Summary for the Past Weeks

 TemperatureHumidityPressure
High67 °F (May 2, 6:00 PM)93% (May 2, 7:00 AM)30.48 "Hg (May 2, 7:00 AM)
Low28 °F (Apr 24, 6:00 AM)23% (Apr 21, 7:00 PM)29.50 "Hg (Apr 26, 3:00 PM)
Average45 °F67%30.07 "Hg
* Reported Apr 20 1:00 AM — May 5 1:00 AM, Fulda, Weather by CustomWeather, © 2016

Note: Actual official high and low records may vary slightly from our data, if they occured in-between our weather recording intervals... More about our weather records

Advertising

Fulda Weather History for the Previous 24 Hours

Scroll right to see more
 ConditionsComfort  
Time TempWeatherWind HumidityBarometerVisibility
1:00 AM
Thu, May 5
38 °FClear.3 mph80%30.42 "Hg25 mi
12:00 AM40 °FClear.3 mph78%30.41 "Hg25 mi
10:00 PM
Wed, May 4
40 °FPassing clouds.2 mph82%30.40 "Hg31 mi
9:00 PM51 °FPassing clouds.1 mph48%30.37 "Hg31 mi
7:00 PM55 °FPassing clouds.3 mph37%30.36 "Hg31 mi
6:00 PM57 °FPassing clouds.2 mph34%30.36 "Hg31 mi
4:00 PM54 °FPassing clouds.3 mph37%30.38 "Hg25 mi
3:00 PM55 °FPassing clouds.3 mph39%30.39 "Hg25 mi
1:00 PM53 °FPassing clouds.2 mph43%30.40 "Hg25 mi
12:00 PM50 °FPassing clouds.3 mph54%30.41 "Hg22 mi
10:00 AM47 °FPassing clouds.1 mph71%30.42 "Hg16 mi
9:00 AM44 °FPassing clouds.1 mph79%30.43 "Hg16 mi
7:00 AM36 °FPassing clouds.3 mph89%30.42 "Hg16 mi
6:00 AM35 °FPassing clouds.5 mph91%30.41 "Hg16 mi
4:00 AM38 °FClear.3 mph86%30.38 "Hg12 mi
3:00 AM38 °FClear.3 mph86%30.37 "Hg12 mi
Weather by CustomWeather, © 2016

See weather overviewHow to use our weather pages